Location: Cerbedi�res
(48.2182°N, 1.4849°W)
Time: 07:58:51
(UTC+00:00)

SeaSat 1 - Pass Details

Date: 03 March 2021
Orbit: 744 x 747 km, 108.0° (Epoch: 12 April)

Event Time Altitude Azimuth Distance (km) Brightness Sun altitude
Rises 19:33:49 0° 28° (NNE) 3,202 5.5 -17.5°
Reaches altitude 10° 19:36:05 10° 27° (NNE) 2,274 4.8 -17.8°
Maximum altitude 19:41:03 82° 301° (WNW) 761 2.5 -18.6°
Drops below altitude 10° 19:45:58 10° 214° (SW) 2,261 5.2 -19.5°
Sets 19:48:13 0° 214° (SSW) 3,181 6.0 -19.8°
